Home   Weather   Brampton   Past weeks
Flag for Canada

Past Weather in Brampton, Ontario, Canada — Yesterday and Last 2 Weeks

Now
75 °F

Broken clouds.


Feels Like: 76 °F
Forecast: 82 / 69 °F
Wind: 17 mph from South

Location: Toronto Pearson International Airport

Current Time: Jul 18, 2019 at 11:58:40 am

Latest Report: Jul 18, 2019 at 11:00 am


Visibility: 15 mi

Pressure: 29.95 "Hg

Humidity: 78%

Dew Point: 68 °F

Location of BramptonLocation

Past Weather in Brampton — Graph

°F

Brampton Temperature Yesterday

Maximum temperature yesterday: 82 °F (at 5:00 pm)
Minimum temperature yesterday: 72 °F (at 11:08 am)
Average temperature yesterday: 76 °F

High & Low Weather Summary for the Past Weeks

 TemperatureHumidityPressure
High88 °F (Jul 5, 6:00 pm)100% (Jul 17, 8:44 am)30.13 "Hg (Jul 17, 8:44 am)
Low59 °F (Jul 8, 5:00 am)26% (Jul 9, 7:34 pm)29.71 "Hg (Jul 11, 2:40 pm)
Average74 °F67%29.95 "Hg
* Reported Jul 3 10:00 am — Jul 18 10:00 am, Brampton. Weather by CustomWeather, © 2019

Note: Actual official high and low records may vary slightly from our data, if they occured in-between our weather recording intervals... More about our weather records

Advertising

Brampton Weather History for the Previous 24 Hours

Scroll right to see more
 ConditionsComfort  
Time TempWeatherWind HumidityBarometerVisibility
10:00 am
Thu, Jul 18
75 °FBroken clouds.7 mph78%29.95 "Hg15 mi
9:00 am73 °FBroken clouds.12 mph83%29.96 "Hg15 mi
8:29 am72 °FBroken clouds.10 mph88%29.96 "Hg15 mi
7:50 am72 °FOvercast.7 mph88%29.95 "Hg15 mi
7:00 am72 °FMostly cloudy.8 mph94%29.95 "Hg15 mi
6:00 am72 °FMore clouds than sun.12 mph94%29.94 "Hg15 mi
5:00 am70 °FPassing clouds.17 mph100%29.93 "Hg10 mi
4:00 am72 °FPassing clouds.14 mph94%29.93 "Hg10 mi
3:00 am72 °FPartly cloudy.15 mph94%29.93 "Hg10 mi
2:00 am72 °FFog.17 mph94%29.93 "Hg6 mi
1:31 am72 °FFog.16 mph94%29.93 "Hg6 mi
1:00 am72 °FPassing clouds.6 mph94%29.92 "Hg10 mi
12:00 am73 °FPartly cloudy.12 mph94%29.91 "Hg15 mi
11:00 pm
Wed, Jul 17
75 °FPassing clouds.12 mph74%29.92 "Hg15 mi
10:00 pm77 °FPartly cloudy.9 mph79%29.90 "Hg15 mi
9:00 pm77 °FPartly cloudy.9 mph83%29.88 "Hg15 mi
8:00 pm77 °FBroken clouds.5 mph83%29.87 "Hg15 mi
7:00 pm79 °FBroken clouds.9 mph84%29.86 "Hg15 mi
6:13 pm79 °FPartly sunny.7 mph84%29.85 "Hg15 mi
6:00 pm79 °FSprinkles. Partly sunny.13 mph79%29.86 "Hg15 mi
5:26 pm81 °FSprinkles. Broken clouds.17 mph74%29.85 "Hg15 mi
5:00 pm82 °FScattered clouds.8 mph74%29.84 "Hg15 mi
4:00 pm81 °FPartly sunny.5 mph79%29.85 "Hg15 mi
3:00 pm81 °FPartly sunny.12 mph74%29.86 "Hg15 mi
2:26 pm79 °FPartly sunny.9 mph84%29.88 "Hg15 mi
2:00 pm79 °FPartly sunny.6 mph79%29.89 "Hg15 mi
1:11 pm77 °FPartly sunny.10 mph89%29.88 "Hg15 mi
12:35 pm77 °FPartly sunny.8 mph89%29.88 "Hg12 mi
12:00 pm75 °FPartly sunny.7 mph94%29.89 "Hg12 mi
11:50 am73 °FBroken clouds.5 mph94%29.89 "Hg15 mi
11:31 am73 °FSprinkles. Partly sunny.3 mph94%29.89 "Hg15 mi
11:08 am72 °FMild.13 mph100%29.89 "Hg6 mi
Weather by CustomWeather, © 2019

See weather overview